This is the latest recevied weather packets stored in our database for station/object SPDRWX. If no packets are shown the sender has not sent any weather packets the latest 10 day(s).
| Time | Temp. | Humidity | Pressure | Rain* | Wind** | Luminosity | Snow |
|---|---|---|---|---|---|---|---|
| 1778303743 | 12.22° C | 38% | 1016.2 hPa | 0 mm | - | - | - |
| 1778303444 | 12.78° C | 38% | 1016.1 hPa | 0 mm | - | - | - |
| 1778303145 | 12.78° C | 37% | 1016.1 hPa | 0 mm | - | - | - |
| 1778302839 | 12.78° C | 37% | 1016.1 hPa | 0 mm | - | - | - |
| 1778302539 | 12.78° C | 35% | 1016.1 hPa | 0 mm | - | - | - |
| 1778302237 | 13.33° C | 35% | 1016 hPa | 0 mm | - | - | - |
| 1778301634 | 13.89° C | 34% | 1016 hPa | 0 mm | - | - | - |
| 1778300731 | 14.44° C | 32% | 1016 hPa | 0 mm | - | - | - |
| 1778298922 | 15.56° C | 28% | 1015.9 hPa | 0 mm | - | - | - |
| 1778298621 | 15.56° C | 27% | 1015.9 hPa | 0 mm | - | - | - |
| 1778296813 | 16.67° C | 24% | 1015.8 hPa | 0 mm | - | - | - |
| 1778295307 | 17.22° C | 22% | 1015.6 hPa | 0 mm | - | - | - |
| 1778295006 | 17.22° C | 22% | 1015.6 hPa | 0 mm | - | - | - |
| 1778294707 | 17.22° C | 21% | 1015.5 hPa | 0 mm | - | - | - |
| 1778294404 | 17.78° C | 21% | 1015.6 hPa | 0 mm | - | - | - |
| 1778294102 | 17.78° C | 21% | 1015.6 hPa | 0 mm | - | - | - |
| 1778293804 | 17.78° C | 20% | 1015.6 hPa | 0 mm | - | - | - |
| 1778289962 | 18.89° C | 16% | 1015.6 hPa | 0 mm | - | - | - |
| 1778289361 | 18.89° C | 16% | 1015.5 hPa | 0 mm | - | - | - |
| 1778288757 | 18.89° C | 15% | 1015.6 hPa | 0 mm | - | - | - |
| 1778287429 | 19.44° C | 13% | 1015.7 hPa | 0 mm | - | - | - |
| 1778287131 | 19.44° C | 13% | 1015.6 hPa | 0 mm | - | - | - |
| 1778286222 | 19.44° C | 13% | 1015.8 hPa | 0 mm | - | - | - |
| 1778284513 | 19.44° C | 12% | 1015.8 hPa | 0 mm | - | - | - |
| 1778283610 | 19.44° C | 12% | 1015.7 hPa | 0 mm | - | - | - |
* Rain since midnight (hover to see other rain measurements)
** Current wind speed in m/s (hover to see current wind gust speed)